This demonstration page uses our WeatherBlox Daily Observations layout. Learn more.

Left ArrowRight Arrow

34.74481, -87.66753

Hourly Observations for August 17, 2022

Temp ( °F °C ) Dew Point ( °F °C ) Humidity (%) Winds ( mph kmh ) Pressure ( in mb ) Visibility ( mi km ) Precip ( " mm )
12:53 am 00:53 Cloudy 73 22.8 67 19.4 81 81 NNE 5 7 29.96 1015 10 16 0.00 0.00
1:53 am 01:53 Cloudy 73 22.8 66 18.9 79 79 ENE 5 7 29.95 1014 10 16 0.00 0.00
2:53 am 02:53 Cloudy 72 22.2 66 18.9 82 82 NE 8 13 29.95 1014 10 16 0.00 0.00
3:53 am 03:53 Clear 71 21.7 66 18.9 84 84 Calm 29.95 1014 10 16 0.00 0.00
4:53 am 04:53 Clear 70 21.1 66 18.9 87 87 ENE 5 7 29.96 1015 9 14 0.00 0.00
5:53 am 05:53 Mostly Cloudy 68 20 66 18.9 93 93 E 3 6 29.98 1015 8 13 0.00 0.00
6:53 am 06:53 Mostly Cloudy 71 21.7 67 19.4 87 87 ENE 5 7 30.00 1016 8 13 0.00 0.00
7:53 am 07:53 Sunny 73 22.8 67 19.4 81 81 ENE 3 6 30.00 1016 10 16 0.00 0.00
8:53 am 08:53 Partly Cloudy with Light Rain 73 22.8 68 20 84 84 E 3 6 30.01 1016 9 14 0.01 0.25
9:53 am 09:53 Mostly Cloudy with Light Rain 73 22.8 68 20 84 84 Calm 30.03 1017 7 11 0.01 0.13
10:53 am 10:53 Cloudy 74 23.3 68 20 82 82 S 3 6 30.02 1017 9 14 0.01 0.25
11:53 am 11:53 Cloudy 75 23.9 69 20.6 82 82 NNW 3 6 30.03 1017 8 13 0.01 0.13
12:53 pm 12:53 Mostly Cloudy 76 24.4 68 20 77 77 ENE 3 6 30.02 1017 10 16 0.01 0.13
1:53 pm 13:53 Cloudy 77 25 69 20.6 77 77 N 6 9 30.01 1016 10 16 0.00 0.00
2:53 pm 14:53 Mostly Cloudy 78 25.6 67 19.4 69 69 Calm 29.98 1015 10 16 0.00 0.00
3:53 pm 15:53 Cloudy 80 26.7 66 18.9 62 62 Calm 29.97 1015 10 16 0.00 0.00
4:53 pm 16:53 Cloudy 78 25.6 67 19.4 69 69 N 5 7 29.96 1015 10 16 0.00 0.00
5:53 pm 17:53 Mostly Cloudy 79 26.1 66 18.9 65 65 VRB 3 6 29.96 1015 10 16 0.00 0.00
6:53 pm 18:53 Sunny 78 25.6 66 18.9 67 67 NNW 3 6 29.96 1015 10 16 0.00 0.00
7:53 pm 19:53 Clear 75 23.9 67 19.4 76 76 Calm 29.98 1015 10 16 0.00 0.00
8:53 pm 20:53 Clear 72 22.2 66 18.9 82 82 NW 3 6 29.99 1016 10 16 0.00 0.00
9:53 pm 21:53 Clear 70 21.1 66 18.9 87 87 NNW 3 6 29.98 1015 10 16 0.00 0.00
10:53 pm 22:53 Clear 70 21.1 67 19.4 90 90 Calm 29.98 1015 10 16 0.00 0.00
11:53 pm 23:53 Clear 67 19.4 65 18.3 93 93 Calm 29.97 1015 7 11 0.00 0.00

Powered by AerisWeather